Printer-friendly version

IAU Minor Planet Center

Minor Planet Center

MPEC 2008-J47 : 2008 JV19

The following Minor Planet Electronic Circular may be linked-to from your own Web pages, but must not otherwise be redistributed electronically.


Read MPEC 2008-J46 Read MPEC 2008-J48


M.P.E.C. 2008-J47                                Issued 2008 May 8, 23:29 UT

     The Minor Planet Electronic Circulars contain information on unusual
         minor planets and routine data on comets.  They are published
   on behalf of Commission 20 of the International Astronomical Union by the
          Minor Planet Center, Smithsonian Astrophysical Observatory,
                          Cambridge, MA 02138, U.S.A.

             Prepared using the Tamkin Foundation Computer Network

                              MPC@CFA.HARVARD.EDU
          URL http://www.cfa.harvard.edu/iau/mpc.html  ISSN 1523-6714

                                   2008 JV19

Observations:
     K08J19V* C2008 05 08.32338 11 49 01.77 +43 25 25.7          19.3 V EJ047703
     K08J19V  C2008 05 08.32944 11 49 03.21 +43 25 02.0          19.9 V EJ047703
     K08J19V  C2008 05 08.33553 11 49 04.76 +43 24 40.1          19.7 V EJ047703
     K08J19V  C2008 05 08.34161 11 49 06.13 +43 24 15.8          20.4 V EJ047703
     K08J19V  C2008 05 08.37407 11 49 13.83 +43 22 13.7          19.0 V EJ047703
     K08J19V  C2008 05 08.37574 11 49 14.26 +43 22 07.2          19.8 V EJ047703
     K08J19V  C2008 05 08.37898 11 49 14.95 +43 21 55.1          20.1 V EJ047703
     K08J19V  C2008 05 08.38057 11 49 15.34 +43 21 48.6          19.4 V EJ047703
     K08J19V  C2008 05 08.87857 11 51 18.07 +42 51 43.6          19.6 V EJ047A17
     K08J19V  C2008 05 08.88489 11 51 19.43 +42 51 23.8          19.5 R EJ047A24
     K08J19V  C2008 05 08.88845 11 51 20.21 +42 51 10.7          19.6 R EJ047A24
     K08J19V  C2008 05 08.89082 11 51 20.80 +42 50 59.8          19.6 V EJ047A17
     K08J19V  C2008 05 08.89170 11 51 20.96 +42 50 59.2          19.5 R EJ047A24
     K08J19V  C2008 05 08.89481 11 51 21.62 +42 50 47.8          19.4 R EJ047A24
     K08J19V  C2008 05 08.89692 11 51 22.12 +42 50 39.9                 EJ047204
     K08J19V  C2008 05 08.89734 11 51 22.20 +42 50 38.9          19.5 R EJ047A24
     K08J19V  C2008 05 08.90310 11 51 23.56 +42 50 14.6          19.4 V EJ047A17
     K08J19V  C2008 05 08.90395 11 51 23.67 +42 50 14.1                 EJ047204
     K08J19V  C2008 05 08.91036 11 51 25.01 +42 49 46.6          20.0 R EJ047113
     K08J19V  C2008 05 08.91097 11 51 25.25 +42 49 48.4          19.4 R EJ047204
     K08J19V  C2008 05 08.91189 11 51 25.36 +42 49 41.1          20.0 R EJ047113
     K08J19V  C2008 05 08.91341 11 51 25.72 +42 49 35.3          20.0 R EJ047113
     K08J19V  C2008 05 08.91494 11 51 26.07 +42 49 29.7          20.2 R EJ047113
     K08J19V  C2008 05 08.91645 11 51 26.39 +42 49 23.8          20.0 R EJ047113
     K08J19V  C2008 05 08.91733411 51 26.82 +42 49 23.9          19.6 C EJ047198
     K08J19V  C2008 05 08.91804711 51 26.95 +42 49 21.2          19.4 C EJ047198
     K08J19V  C2008 05 08.91852211 51 27.04 +42 49 19.2          19.6 C EJ047198
     K08J19V  C2008 05 08.92019 11 51 27.19 +42 49 13.8          20.1 V EJ047595
     K08J19V  C2008 05 08.93306 11 51 30.05 +42 48 27.1          19.9 V EJ047595
     K08J19V  C2008 05 08.94594 11 51 32.86 +42 47 38.8          19.6 V EJ047595

Observer details:
113 Volkssternwarte Drebach, Schoenbrunn.  Observer G. Lehmann.  0.5-m f/5
    reflector + CCD.
198 Wildberg.  Observer R. Apitzsch.  0.35-m f/4.2 reflector + CCD.
204 Schiaparelli Observatory.  Observer L. Buzzi.  0.60-m f/4.64 reflector
    + CCD.
595 Farra d'Isonzo.  Observers L. Bittesini, G. Lombardi, E. Pettarin,
    F. Piani, F. Fabris, G. Cralli.  Measurer G. Lombardi.  0.40-m f/4.5
    reflector + CCD.
703 Catalina Sky Survey.  Observer R. E. Hill.  Measurers E. C. Beshore,
    A. Boattini, G. J. Garradd, A. R. Gibbs, A. D. Grauer, R. E. Hill,
    R. A. Kowalski, S. M. Larson, R. H. McNaught.  0.68-m Schmidt + CCD.
A17 Guidestar Observatory, Weinheim.  Observers M. Emmerich, S. Melchert.
    0.36-m f/6 Schmidt-Cassegrain + CCD.
A24 New Millennium Observatory, Mozzate.  Observer E. Cozzi.  0.36-m f/7.6
    Schmidt-Cassegrain + CCD.

Orbital elements:
2008 JV19                                           PHA, Earth MOID = 0.0010 AU
Epoch 2008 May 14.0 TT = JDT 2454600.5                  MPC
M 110.93375              (2000.0)            P               Q
n   1.05280402     Peri.  296.47546     +0.03943626     -0.99719988
a   0.9569833      Node   151.04944     +0.95714597     +0.01944096
e   0.2773152      Incl.    7.54263     +0.28690831     +0.07221119
P   0.94           H   20.8           G   0.15           U   9
Residuals in seconds of arc
080508 703  0.5-  0.2+    080508 A24  0.1-  0.2-    080508 113  0.5-  0.2-
080508 703  0.3-  0.6-    080508 A17  0.2-  0.2+    080508 113  0.3-  0.4-
080508 703  1.0+  0.6+    080508 A24  0.2+  0.2+    080508 113  0.2-  0.4-
080508 703  0.3+  0.7-    080508 A24  0.2-  0.1+    080508 113  0.4-  0.7-
080508 703  0.1+  0.3+    080508 204  0.0   0.0     080508 198  1.0+  0.6+
080508 703  0.4+  0.1+    080508 A24  0.0   0.5+    080508 198  0.7+  0.5+
080508 703  0.5-  0.3+    080508 A17  0.1-  0.2-    080508 198  0.5+  0.3+
080508 703  0.4-  0.2-    080508 204  0.1-  0.0     080508 595  0.7+  0.0
080508 A17  0.1-  0.7-    080508 113  0.5-  0.3-    080508 595  0.4+  0.7+
080508 A24  0.0   0.1-    080508 204  0.0   0.0     080508 595  0.6-  0.1-

Ephemeris:
2008 JV19                a,e,i = 0.96, 0.28, 8                   q = 0.6916
Date    TT    R. A. (2000) Decl.     Delta      r     Elong.  Phase     V
2008 05 04    11 28.72   +48 00.9    0.197    1.068   102.5    67.2    19.8
2008 05 14    12 09.12   +38 00.0    0.240    1.106   107.2    60.8    20.1
2008 05 24    12 34.81   +29 53.7    0.289    1.138   108.6    57.5    20.5
2008 06 03    12 54.82   +23 09.6    0.341    1.166   107.9    55.9    20.8
2008 06 13    13 12.72   +17 21.4    0.397    1.188   106.0    55.3    21.2
2008 06 23    13 29.98   +12 13.8    0.453    1.204   103.3    55.2    21.5
2008 07 03    13 47.29   +07 36.4    0.510    1.216   100.2    55.4    21.8
2008 07 13    14 05.13   +03 22.2    0.567    1.222    96.8    55.7    22.0

Timothy B. Spahr             (C) Copyright 2008 MPC           M.P.E.C. 2008-J47

Read MPEC 2008-J46 Read MPEC 2008-J48


Our Web policy. Index to the CBAT/MPC/ICQ pages.


Valid HTML 4.01!